Location: Rostock
(54.0884°N, 12.1234°E)
Time: 08:28:27
(UTC+01:00)

ISS - Pass Details

Date: 04 January 2018
Orbit: 402 x 406 km, 51.6° (Epoch: 16 January)

Event Time Altitude Azimuth Distance (km) Brightness Sun altitude
Exits shadow 06:55:54 17° 254° (WSW) 1,107 -2.1 -12.7°
Maximum altitude 06:58:13 56° 180° (S) 489 -3.3 -12.4°
Drops below altitude 10° 07:01:27 10° 101° (E) 1,469 0.4 -12.0°
Sets 07:03:33 0° 97° (E) 2,331 1.7 -11.7°
